Cloud_Cover
0 0 14 95 98 100 100 100 100 100 100 100 100 100 100 100 100 100 100 100 100 100 100 100 100 100 100 100 86 5 98 93 98 95 70 54 68 100 39 0 0 5 6
14 45 99 100 97 96 100 100 100 100 100 100 100 100 100 100 100 100 100 100 100 100 100 100 100 100 100 100 100 86 14 98 98 100 100 93 76 6 100 64 4 0 5
75 39 94 100 92 92 100 72 92 100 100 100 100 100 100 100 100 100 100 100 100 100 100 100 100 100 100 100 100 100 100 99 67 92 86 55 14 5 6 99 100 12 4
98 95 98 100 100 100 100 99 98 95 100 100 100 100 100 100 100 100 100 100 100 95 100 99 100 100 100 100 100 100 100 66 99 31 95 84 5 4 5 6 100 59 89
100 100 100 100 100 100 100 100 97 100 93 76 100 100 100 100 100 100 96 100 100 100 100 94 100 100 100 100 100 100 100 94 76 100 50 59 6 4 5 5 42 40 100
100 100 100 100 100 100 100 100 100 100 93 58 21 98 100 97 69 100 100 100 100 100 100 97 100 100 100 100 100 100 100 100 99 90 48 100 98 17 5 5 99 93 30
100 100 100 100 100 100 100 100 100 100 97 32 27 98 100 100 100 100 100 100 100 94 96 100 100 100 100 100 100 100 100 100 100 83 84 94 64 73 95 70 63 26 45
66 96 92 100 100 93 98 98 67 97 76 30 6 87 100 100 100 100 100 100 100 100 100 100 100 100 100 100 100 100 100 100 100 98 87 93 100 100 100 100 81 47 71
0 0 1 7 52 79 99 58 19 96 100 87 34 98 62 99 81 95 100 100 100 100 100 100 100 100 100 100 100 100 100 100 100 100 100 51 100 100 100 100 79 37 45
0 0 0 0 0 27 89 27 1 0 17 16 56 6 100 100 91 87 100 100 100 100 100 100 100 100 100 100 100 100 100 100 100 100 100 100 97 100 100 100 84 100 74
0 0 0 0 0 0 0 6 42 52 8 0 0 4 2 81 100 100 100 100 100 100 100 100 100 100 100 100 100 100 100 100 100 100 100 100 100 100 100 100 83 84 97
0 0 0 0 0 0 0 0 0 0 0 0 0 0 0 4 18 93 97 100 100 100 100 100 100 100 100 100 100 100 100 100 100 100 100 100 100 100 100 100 100 91 100
5 2 4 2 1 3 5 0 1 0 0 0 0 0 0 0 0 0 0 19 100 100 100 100 100 100 100 100 100 100 100 100 100 100 100 100 100 100 100 100 100 100 100
57 68 50 6 8 5 4 5 5 2 3 4 1 0 0 0 0 0 0 0 62 87 87 100 100 100 100 100 100 100 100 100 100 100 100 100 100 100 100 100 100 100 100
28 13 5 15 5 5 2 0 5 6 5 5 5 4 4 0 0 0 0 0 0 0 4 7 97 100 100 100 100 100 100 100 100 100 100 100 100 100 100 100 100 100 100
100 29 8 28 5 5 11 5 5 5 24 5 5 5 5 5 5 4 2 0 0 0 0 3 63 26 89 100 100 100 100 100 100 100 100 100 100 100 100 100 100 100 100
100 100 100 100 100 100 75 34 4 5 5 9 79 97 93 63 8 15 5 5 5 4 0 0 0 2 4 7 74 72 44 65 100 100 100 100 100 100 100 100 100 100 100
100 100 100 100 100 100 100 100 100 100 22 41 7 2 16 99 65 25 72 71 13 6 2 0 0 0 0 0 5 35 99 100 100 100 100 100 100 100 100 100 33 100 73
4 85 100 97 100 80 100 98 88 100 100 100 100 89 42 10 55 68 38 32 53 60 64 46 22 5 6 56 49 5 11 17 66 100 100 100 100 100 100 100 100 100 100
27 12 42 31 18 52 86 22 6 37 100 57 90 100 72 27 6 52 79 48 100 97 96 100 100 100 81 35 85 84 10 17 5 5 11 100 100 100 100 100 100 100 100
45 75 31 5 5 5 5 5 5 5 4 84 89 100 100 100 68 59 5 21 99 100 100 100 57 100 100 96 17 5 5 5 2 4 5 5 22 95 100 100 100 100 100
74 79 33 5 5 5 5 5 5 3 1 4 5 96 99 67 100 98 94 40 39 88 100 100 33 42 81 59 70 13 5 3 1 0 0 0 5 32 23 32 87 100 100
95 91 40 5 5 5 6 22 9 5 5 5 5 5 6 32 37 70 84 87 80 47 5 84 50 12 10 5 3 1 0 2 5 1 0 3 1 4 5 5 2 0 6
100 100 98 92 51 23 50 97 100 97 74 63 58 50 5 7 6 8 43 50 77 5 5 18 5 5 5 1 4 5 4 5 5 8 10 24 5 5 5 5 5 5 5
100 100 100 100 100 100 100 100 100 94 95 99 100 98 96 86 54 98 94 92 67 96 100 100 100 73 3 0 0 1 3 1 3 5 5 1 0 0 0 0 0 0 0
100 100 100 100 100 100 100 100 100 100 100 100 98 92 100 100 100 100 100 100 100 100 82 8 5 5 5 0 0 0 1 2 5 5 11 5 5 0 0 0 0 0 0